Terminal Aerodrome Forecast
Issued by NWS Indianapolis, IN

Home | Current Version | Previous Version | Text Only | Print | Product List | Glossary On
Versions: 1 2 3 4 5 6 7 8 9 10 11 12 13 14 15 16 17 18 19 20 21 22 23 24
000
FTUS43 KIND 300200 AAA
TAFIND
TAF AMD
KIND 300221Z 3002/3106 23014KT P6SM SCT030 BKN050
     FM300600 28014KT P6SM SCT025 BKN035
     FM301100 29012KT P6SM SCT250=

USA.gov is the U.S. government's official web portal to all federal, state and local government web resources and services.